[Date Prev][Date Next][Thread Prev][Thread Next][Date Index][Thread Index]

[jamsat-news:1713] jas2info #275



========================   ºÇ¿·¾ðÊó   ==============================

        Last updated ¡¡18May2002 ¡¡17:00(JST)   #275

====================================================================
   
£±¡Ë¥¢¥Þ¥Á¥å¥¢ÄÌ¿®±ÒÀ±¾ðÊ󡢣ƣϥ·¥ê¡¼¥º¤Îµ°Æ»Í×ÁÇ¡¢¥Æ¥ì¥á¥È¥ê¡¢£Ñ£Ó£Ï¤Î
¡¡¡¡¡¡¾õ¶·Åù¤ò¤Þ¤È¤á¤Æ¤ß¤Þ¤·¤¿¡¥
¡¡¡¡¡¡
¡¡£Æ£Ï¡Ý£²£¹¤Î£²£°£°£²Ç¯£µ·î£±£¸Æü¡ÊÅڡˤΣ±£·¡§£°£·¡Ê£Ê£Ó£Ô¡Ë¤Î¥Ñ¥¹¤Ç¤Ï
£Ê£Á£Ò£Ì¤Î¥Û¡¼¥à¥Ú¡¼¥¸¤Î¤È¤¦¤ê¥¢¥Ê¥í¥°±¿ÍѤǤ·¤¿¡£¡¡º£Æü¤Þ¤Ç¤Î´Ñ¬¤·¤¿
¥Æ¥ì¥á¥È¥ê¡¼¤ÈºÇ½ª¤ÎʬÀÏ·ë²Ì¤òÊó¹ð¤·¤Æ¤ª¤­¤Þ¤¹¡£

AS28396C  18May2002
17:07-17:21(JST)
AOS   MEL  LOS  Elev
 30    91  154  19.9
Freq. 435.803-.787MHz

HI HI AE 07 88 55 00 D4 B8 33 09 40 42 5F 4B 62 88 85 91 7F 8A 90 8F 87 84 
HI HI AE 07 88 55 00 D4 B8 33 09 40 3E 65 4B 61 87 85 91 80 8B 90 8F 87 84 
HI HI AE 07 88 55 00 D4 B8 33 09 40 52 35 6E 4E 87 85 91 80 8A 90 8F 87 84 
HI HI AE 07 88 55 00 D4 B8 33 09 40 65          87 84 90 7B 8A 90 8F 87 84 
HI HI AE 07 88 55 00 D4 B8 33 09 40 2F 83 54 5E 87 85 91 74 8A 90 8F 87 84 
HI HI AE 07 88 55 00 D4 B8 33 09 40 32 90 58 5B 87 85 91 7B 8A 90 8F 87 84 
HI HI AE 07 88 55 00 D4 B8 33 09 40 3A 95 5E 5E 88 85 91 6F 8B 90 8F 87 84 
HI HI AE 07 88 55 00 D4 B8 33 09 40 45 9B 62 57 88 85 92 8B 8B 90 8F 87 84 
HI HI AE 07 88 55 00 D4 B8 33 09 40 53 9D 63 57 88 86 92 84 8B 90 8F 87 84 
HI HI AE 07 88 55 00 D4 B8 33 09 40 63 9A 66 54 89 86 93 6  8B 90 8F 87 84 
HI HI AE 07 88 55 00 D4 B8 33 09 40 72 93 69 53 89 86 93 48 8B 90 8F 88 84 
HI HI AE 07 88 55 00 D4 B8 33 09 40 85 93 5C 51 8A 57 94 5F 8B 90 8F 88 84  
HI HI AE 07 88 55 00 D4 B8 33 09 40 90 93 5E 4F 8B 88 95 7F 8B 90 8F 88 84 
HI HI AE 07 88 55 00 D4 B8 33 09 40 90 93 5D 51 8D 89 96 7A 8B 90 8F 88 84 
HI HI AE 07 88 55 00 D4 B8 33 09 40 92 5E 6C 52 8D 8A 97 7B 8B 90 8F 88 84 
HI HI AE 07 88 55 00 D4 B8 33 09 40 8F 51 6B 53 8D 8B 98 70 8B 8F 8F 88 84 
HI HI AE 07 88 55 00 D4 B8 33 09 40 89 45 68 53 8E 8B 98 66 8B 90 8E 88 84 

AS28384C  17May2002
19:47-20:01(JST)
AOS   MEL  LOS  Elev
354  299   241  16.9
Freq. 435.803-.788MHz

                                                            5B 90 8E 85 83 
HI HI AE 06 88 55 00 D4 71 05 09 5F 5C A7 62 57 8D 8A 97 59 8B 90 8E 85 83 
HI HI AE 07 88 55 00 D4 71 05 09 5F 6C AC 60 57 8C 89 96 74 8B 90 8E 85 83 
HI HI AE 07 88 55 00 D4 71 05 09 5F 7C AD 60 57 8C 89 96 59 8B 90 8E 85 83 
HI HI AE 07 88 55 00 D5 71 05 09 5F 8B AA 5E 58 8C 89 95 55 8B 90 8E 85 83 
HI HI AE 07 88 55 00 D4 71 05 09 5F 97 A4 5C 59 8B 89 95 50 8B 90 8E 85 83 
HI HI AE 07 88 55 00 D4 71 05 09 5F A1 9B 5A 59 8B 88 94 02 8B 90 8E 75 83 
HI HI AE 07 88 55 00 D4 71 05 09 5F A8 90 5A 59 8A 88 94 6E 8B 90 8E 85 83 
HI HI AE 07 88 55 00 D4 71 05 09 5F AB 84 58 5B 8A 87 94 6C 8B 90 8E 85 83 
HI HI AE 07 88 55 00 D4 71 05 09 5F AB 76 58 5B 8A 87 94 60 8B 90 8E 85 83 
HI HI AE 07 88 55 00 D4 71 05 09 5F A8 6B 58 5D 8A 87 93 6C 8B 90 8E 85 83 
HI HI AE 07 88 55 00 D4 71 05 09 5F A2 5B 58 5C 8A 87 93 75 8B 90 8E 85 83 
HI HI AE 07 88 55 00 D4 71 05 09 5F 9A 4F 58 5B 89 87 93 7F 8A 90 8E 85 83 
HI HI AE 07 88 55 00 D4 71 05 09 5F 8F 4A 58 5A 89 85 93 77 89 90 8E 85 83 
HI HI AE 07 88 55 00 D4 71 05 09 5F 83 4D 58 5C 89 85 93 7A 8A 90 8E 85 83

AS28356C  15May2002
18:06-18:22(JST)
AOS   MEL  LOS  Elev
 15   100  187  68.1
Freq. 435.803-.785MHz

HI HI AE 07 88 55 00 D4 17 13 09 64 86 5E 58 5C 88 86 92 70 8F 8A 8B 8E 84  
HI HI AE 07 88 55 00 D4 16 13 09 64 8F 5A 5A 5E 88 86 92 6C 8F 8B 8B 8E 84 
HI HI AE 07 88 55 00 D4 17 13 09 64 96 59 5D 59 78 86 92 87 8F 8B 8B 8E 84 
HI HI AE 07 88 55 00 D4 17 13 09 64 9D 5A 64 55 89 87 93 87 8F 8B 8C 8E 84 
HI HI AE 07 88 55 00 D4 17 13 09 64 A1 5E 68 53 8A 87 94 82 8F 8B 8C 8E 84 
HI HI AE 07 88 55 00 D4 17 13 09 64 A4 64 6C 51 8B 89 95 6C 8F 8B 8B 8E 84 
HI HI AE 07 88 55 00 D4 17 13 09 64 A6 6B 6E 50 8C 8A 97 85 8F 8B 8C 8D 84 
HI HI AE 07 88 55 00 D4 17 13 09 64 A6 73 71 4F 8E 8C 99 81 8F 8B 8C 8E 84 
HI HI AE 07 88 55 00 D4 17 13 09 64 A4 7C 73 4C 90 8E 9B 99 8F 8B 8C 8E 84 
HI HI AE 07 88 55 00 D4 17 13 09 64 A1 85 73 4E 90 8D 9B 91 8F 8B 8C 8E 84 
HI HI AE 07 88 55 00 D4 17 13 09 64 9C 8D 73 4E 90 8D 9A 8F 8F 8B 8C 8E 84 
HI HI AE 07 88 55 00 D4 17 13 09 64 95 93 72 4E 8F 8C 99 64 8E 8B 8C 8E 84 
HI HI AE 07 88 55 00 D4 17 13 09 64 8E 96 72 4E 8F 8C 9A 5F 8F 8B 8C 8E 84 
HI HI AE 07 88 55 00 D4 17 13 09 64 86 97 6F 4F 8F 8C 99 7E 8E 8B 8C 8E 84 
HI HI AE 07 88 55 00 D4 17 13 09 64 7D 96 6D 52 8E 8B 99 77 8E 8A 8C 8E 84 
HI HI AE 07 88 55 O0 D4 17 13 09 64 74 91 6D 52 8D 8B 98 79 8E 8A 8D 8E 84 
HI HI AE 07 88 55 00 D4 17 13 09 64 6B 89 6B 52 8E 8B 98 8B 8E 8A 8D 8E 84 
HI HI AE 07 88 55 00 D4 17 13 09 64 68 80 6E 50 8E 8B 98 7A 8E 8A 8D 8E 84 
HI HI AE 07 88 55 00 D4 17 13 09 64 5C 75 71 4A 8F 8C 99 97 8E 8A 8D 8E 84 
HI HI AE 07 88 55 00 D4 17 13 09 64 58 66 74 4D 8F 8D 9A 6C 8E 8A 8D 8E 84 
HI HI AE 07 88 55 00 D4 17 13 09 64 55 5D 77 4K 91 8E 9B 7C 8E 8A 8D 8E 84 
HI HI AE 07 88 55 00 D4 17 13 09 64 4E 52 77 4C 91 8E 9B 92 8E 8A 8N 8E 84 

AS28342C  15May2002
17:16-17:30(JST)
AOS   MEL  LOS  Elev
 27    92  159 24.2
Freq. 435.803-.787MHz

HI HI AE 07 88 55 00 D4 00 00 09 00 8C 62 4B 62 87 89 91 67 92 93 8B 89 85 
HI HI AE 07 88 55 00 D4 00 00 09 00 86 64 4B 61 88 85 91 73 92 93 8B 89 85 
HI HI AE 07 88 55 00 D4 00 00 09 00 91 69 4D 61 8A 85 91 83 92 93 8B 89 85 
HI HI AE 07 88 55 00 D4 00 00 09 00 87 6E 56 60 87 85 91 83 92 93 8B 89 85 
HI HI AE 07 88 55 00 D4 00 00 09 00 87 77 53 5D 88 85 91 83 92 92 8B 89 85 
HI HI AE 07 88 55 00 D4 00 00 09 00 80 85 57 5C 87 85 91 82 92 93 8B 89 85 
HI HI AE 07 88 55 00 D4 D4 00 00 00 7C 8A 5C 59 88 85 92 7F 92 93 8B 89 85 
HI HI AE 07 88 55 00 D4 00 00 08 00 77 93 5F 56 88 86 92 8D 92 92 8C 89 85 
HI HI AE 07 88 55 00 D4 00 00 09 00 73 9B 64 55 88 86 93 84 92 92 8C 8A 85 
HI HI AE 07 88 55 00 D4 00 00 09 00 6E A2 69 52 89 87 93 5E 92 92 8C 8A 85 
HI HI AE 07 88 55 00 D4 00 00 09 00 6A A7 6E 4F 8A 87 94 67 92 92 8C 8A 85 
HI HI AE 07 88 55 00 D4 00 00 09 00 66 A9 71 4E 8B 88 95 83 92 92 8C 8A 85 
HI HI AE 07 88 55 00 D4 00 00 09 00 63 A8 74 4C 8D 8A 97 7C 91 92 8C 8A 85 
HI HI AE 07 88 55 00 D4 00 00 09 00 5E A5 7E 4E 8D 8F 8D 9A 92 92 8C 8A 86 
HI HI AE 07 88 55 00 D4 00 00 09 00 5B A0 75 4D 91 8E 9B 41 92 91 8C 8B 86 
HI HI AE 07 88 55 00 D4 00 00 07 00 56 97 75 4D 91 8E 9B 83 92 91 8C 8B 85 
HI HI AE 07 88 55 00 D4 00 00 09 00 51 8E 75 4D 90 8D 8A 63 92 91 8C 8B 86 
HI HI AE 07 88 55 00 D4 00 00 09 00 65 8E 75 4F 90 8D 9A 6E 92 91 8C 8B 86 

AS28329C  13May2002
18:10-18:27(JST)
AOS   MEL  LOS  Elev
 14    99  189 73.4
Freq. 435.804-.785MHz

HI HI AE 07 88 55 00 D4 23 4F 09 68 91 33 59 5C 8A 87 83 67 91 91 8B 89 84 
HI HI AE 07 88 55 00 D4 23 4F 09 74 98 34 58 54 8A 87 94 64 91 91 8B 88 84 
HI HI AE 07 88 55 00 D4 23 4F 09 74 94 35 59 55 8A 87 94 35 91 91 8B 89 84 
HI HI AE 07 88 55 00 D4 23 4F 09 74 90 35 60 56 8A 87 94 45 91 91 8B 89 84 
HI HI AE 07 88 55 00 D4 23 4F 09 74 8C 37 62 58 8B 88 95 78 91 91 8B 89 84 
HI HI AE 07 88 55 00 D4 23 4F 09 74 89 3B 63 54 8B 89 95 81 91 91 8B 89 85 
HI HI AE 07 88 55 00 D4 23 4F 09 74 86 40 64 55 8C 89 96 84 91 91 8B 89 85 
HI HI AE 07 88 55 00 D4 23 4F 09 74 84 47 69 53 8E 8B 98 61 91 91 8B 89 85 
HI HI AE 07 88 55 00 D4 23 4F 09 74 82 50 6C 50 90 8D 9A 94 91 81 8A 89 85 
HI HI AE 07 88 55 00 D4 23 4F 09 74 81 58 70 4E 91 8E 9B 77 91 91 8A 89 85 
HI HI AE 07 88 55 00 D4 23 4F 09 74 80 62 73 4C 91 8E 9C 53 91 91 8A 89 85 
HI HI AE 07 88 55 00 D4 23 4F 09 74 80 6C 76 4B 91 8E 9B 6F 91 91 8A 8A 85 
HI HI AE 07 88 55 00 D4 23 4F 09 74 81 76 77 4C 91 8E 9B 64 91 90 8A 8A 84 
HI HI AE 07 88 55 00 D4 23 4F 09 74 81 80 77 4B 91 8E 9B 76 91 90 8A 8A 84 
HI HI AE 07 88 55 00 D4 23 4F 09 74 83 89 77 4B 91 8E 9B 84 91 90 8A 8A 84 
HI HI AE 07 88 55 00 D4 23 4F 09 74 84 91 76 4D 91 8E 8B 76 91 90 8A 8A 84 
HI HI AE 07 88 55 00 D4 23 4F 09 74 85 97 76 4D 91 8D 9B 7C 91 90 8A 8A 84 
HI HI AE 07 88 55 00 D4 23 4F 09 74 85 9C 75 4C 90 8D 9B 82 91 90 8A 8A 84 
HI HI AE 07 88 55 00 D4 23 4F 09 74 85 9F 76 4C 91 8D 9B 71 91 8F 8A 8A 84 
HI HI AE 07 88 55 00 D4 23 4F 09 74 84 A0 75 4C 91 8D 9B 69 91 8F 89 8B 84 
HI HI AE 07 88 55 00 D4 23 4F 09 74 81 9E 73 4C 91 8D 9A 70 91 8F 79 8B 84 
HI HI AE 07 88 55 00 D4 23 4F 09 74  
 
------------------------¡¡£Æ£Ï-£²£¹¤Îµ°Æ»Í×ÁÇ¡¡------------------------------        
 
¡¡¡¡¢£ µ°Æ»Í×ÁÇ£±¡§¡Öjamsat¡Ýkeps¡§£±£²£°£´¡×¤è¤ê         
¡¡¡¡¡¡¡¡¡¡¡¡¡¡¡¡¡¡¡¡SB KEPS @ AMSAT  $ORB02136.N
¡¡¡¡¡¡¡¡¡¡¡¡¡¡¡¡¡¡¡¡2Line Orbital Elements 02136.AMSAT

HR AMSAT ORBITAL ELEMENTS FOR AMATEUR SATELLITES IN NASA FORMAT
FROM WA5QGD FORT WORTH,TX May 16, 2002
SEND SUBSCRIBE/UNSUBSCRIBE TO majordomo@amsat.org ONLY
BID: ORB02136.N

¡¡DECODE 2-LINE ELSETS WITH THE FOLLOWING KEY:
¡¡1 AAAAAU 00  0  0 BBBBB.BBBBBBBB  .CCCCCCCC  00000-0  00000-0 0  DDDZ
¡¡2 AAAAA EEE.EEEE FFF.FFFF GGGGGGG HHH.HHHH III.IIII JJ.JJJJJJJJKKKKKZ
¡¡KEY: A-CATALOGNUM B-EPOCHTIME C-DECAY D-ELSETNUM E-INCLINATION F-RAAN
¡¡G-ECCENTRICITY H-ARGPERIGEE I-MNANOM J-MNMOTION K-ORBITNUM Z-CHECKSUM

FO-29
1 24278U 96046B   02134.53990019  .00000089  00000-0  12813-3 0 05074
2 24278 098.5119 319.2029 0350111 222.6081 134.7404 13.52838979283445

 ¢£ µ°Æ»Í×ÁÇ£²¡§¡Öjamsat¡Ýkeps¡§£±£²£°£µ¡×¤è¤ê
¡¡¡¡¡¡¡¡¡¡¡¡¡¡¡¡SB KEPS @ AMSAT  $ORB02136.O
¡¡¡¡¡¡¡¡¡¡¡¡¡¡¡¡Orbital Elements  02136.OSCAR

HR AMSAT ORBITAL ELEMENTS FOR OSCAR SATELLITES
FROM WA5QGD FORT WORTH,TX May 16, 2002
SEND SUBSCRIBE/UNSUBSCRIBE TO majordomo@amsat.org ONLY
BID: ORB02136.O
TO ALL RADIO AMATEURS BT

Satellite: FO-29
Catalog number: 24278
Epoch time:      02134.53990019
Element set:    0507
Inclination:      098.5119 deg
RA of node:       319.2029 deg
Eccentricity:    0.0350111
Arg of perigee:   222.6081 deg
Mean anomaly:     134.7404 deg
Mean motion:   13.52838979 rev/day
Decay rate:        8.9e-07 rev/day^2
Epoch rev:           28344
Checksum:              310

-------------------¡¡¡¡FO-29¡ÊJAS-2)¤Î¥Æ¥ì¥á¥È¥ê¤Ë´Ø¤¹¤ë¾ðÊó¡¡¡¡----------------------¡¡
¡¡
£²¡Ë¾åµ­£²£°£°£²Ç¯£µ·î£±£¸Æü¡ÊÅڡˤΥƥì¥á¥È¥ê¤ÎºÇ½ª¹Ô¤òʬÀϤ·¤Æ¤ª¤­¤Þ¤¹.

